Main page
METAR-TAF:

METAR-TAF

Airports :

Ventspils International Airport

Ventspils, Latvia

latitude: 57-21-28N, longitude: 021-32-39E, elevation: 6 m

Current weather observation

The report was made 19 minutes ago, at 13:20 UTC
Wind 3 kt from the Northwest
Temperature 2°C
Humidity 87%
Pressure 1003 hPa
Visibility 10 km or more
Few clouds at a height of 1000 ft
Scattered clouds at a height of 3000 ft
Overcast at a height of 4000 ft

METAR: EVVA 281320Z AUTO 31003KT 9999 FEW010 SCT030 OVC040 02/M00 Q1003

Time: 15:39 (13:39 UTC)


TAF: missing

Weather observations and forecasts of more than 4000 airports (METAR and TAF reports).

The available stations are represented by yellow and red dots on the map.

Hover mouse over dot to see the name of the station.

Then click to see weather observations and forecasts.

To change the map : click on the green buttons with a black cross to zoom in, on the green button with a dash to zoom out, or on the green arrows for adjacent maps.


METAR-TAF: